Regional Weather Roundup
Issued by NWS

Home | Current Version | Previous Version | Text Only | Print | Product List | Glossary Off
Versions: 1 2 3 4 5 6 7 8 9 10 11 12 13 14 15 16 17 18 19 20 21 22 23 24 25 26 27 28 29 30 31 32 33 34 35 36 37 38 39 40 41 42 43 44 45 46 47 48 49 50

000
ASUS43 KIND 031409
RWRIN

WEATHER ROUNDUP FOR INDIANA
NATIONAL WEATHER SERVICE INDIANAPOLIS IN
1000 AM EDT THU SEP 03 2015

NOTE: "FAIR" INDICATES FEW OR NO CLOUDS BELOW 12,000 FEET WITH NO
SIGNIFICANT WEATHER AND/OR OBSTRUCTIONS TO VISIBILITY.

* - STATION DOES NOT REPORT WEATHER SUCH AS PRECIPITATION OR FOG.

+ - STATION NOT QUALITY CONTROLLED BY THE NATIONAL WEATHER SERVICE.
    USE DATA WITH CAUTION...ESPECIALLY DEWPOINT AND RELATIVE
    HUMIDITY OBSERVATIONS.

INZ001>003-010>013-019-020-031500-
NORTHWEST INDIANA

CITY           SKY/WX    TMP DP  RH WIND       PRES   REMARKS
GARY /AIRPORT/ SUNNY     79  66  65 SW8       29.97F
KNOX *+        SUNNY     77  68  73 SW6       29.98F
LA PORTE +     SUNNY     78  75  90 SW7       29.99F
MICHIGAN CITY+ SUNNY     79  68  69 SW7       29.97F
MONTICELLO +   SUNNY     77  72  85 SW7       30.00S
RENSSELAER +   SUNNY     79  72  78 SW5       30.00R
VALPARAISO     SUNNY     78  69  73 SW10      29.99S

$$

LMZ046-743>745-031500-
SOUTHERN LAKE MICHIGAN

STATION/POSITION TIME  TEMP    WIND        PRES    WAVE
                       AIR SEA DIR/SP/G            HT
                 (UTC) (F)     (DEG/KT/KT) (MB)    (FT)
BURNS HARBOR     1300   76     200/  9/ 12 1015.2S
MICHIGAN CITY    1300   75     180/  9/ 11   N/A
5NW MICH CITY    1400   75 72  230/  8/ 10   N/A     1

$$

INZ004-005-014>016-021>024-031500-
NORTH CENTRAL INDIANA

CITY           SKY/WX    TMP DP  RH WIND       PRES   REMARKS
ELKHART        SUNNY     77  70  78 SW6       29.98F
GOSHEN         SUNNY     79  69  71 SW8       29.99F
LOGANSPORT +   SUNNY     77  64  65 SW7       30.02S
PERU/GRISSOM   SUNNY     79  70  73 W6        30.01S
ROCHESTER +    SUNNY     81  70  69 W8        30.01S
SOUTH BEND     SUNNY     77  69  76 SW10      29.98F
WARSAW +       SUNNY     79  70  73 W8        30.00F

$$

INZ006>009-017-018-025>027-031500-
NORTHEAST INDIANA

CITY           SKY/WX    TMP DP  RH WIND       PRES   REMARKS
ANGOLA *+      SUNNY     81  72  74 SW5       29.99S
AUBURN +       MOSUNNY   77  68  73 W6        30.01S
FORT WAYNE     SUNNY     78  69  73 W8        30.01F
HUNTINGTON +   SUNNY     78  66  66 SW5       30.01

$$

INZ028-029-035-036-043>045-051>053-031500-
WEST CENTRAL INDIANA

CITY           SKY/WX    TMP DP  RH WIND       PRES   REMARKS
CRAWFORDSVL +  SUNNY     76  67  72 SW6       30.03F
GREENCASTLE +  SUNNY     77  64  65 SW3       30.05F
LAFAYETTE      SUNNY     78  69  73 SW7       30.00F
TERRE HAUTE    SUNNY     78  69  73 SW5       30.04S

$$

INZ030>032-037>040-046>048-054>057-064-065-031500-
CENTRAL INDIANA

CITY           SKY/WX    TMP DP  RH WIND       PRES   REMARKS
ANDERSON       SUNNY     77  64  65 SW6       30.05F
COLUMBUS       SUNNY     75  68  78 CALM      30.05S HAZE
FRANKFORT +    SUNNY     79  75  86 S7        30.04S
GREENWOOD *+   SUNNY     79  66  65 W5        30.05S
INDIANAPOLIS   SUNNY     79  68  69 SW7       30.04S
-EAGLE CREEK   SUNNY     79  69  71 SW5       30.03F
KOKOMO *+      SUNNY     81  70  69 W8        30.02S
MARION +       SUNNY     76  63  62 SW5       30.03S
MT COMFORT *+  SUNNY     81  68  65 SW5       30.04F
SHELBYVILLE    SUNNY     79  70  74 SW3       30.04F
ZIONSVILLE +   SUNNY     79  68  70 SW6       30.05S

$$

INZ033-034-041-042-049-050-058-059-031500-
EAST CENTRAL INDIANA

CITY           SKY/WX    TMP DP  RH WIND       PRES   REMARKS
MUNCIE         SUNNY     78  69  73 W7        30.03F

$$

INZ060-061-067>069-081>083-085>088-031500-
SOUTHWEST INDIANA

CITY           SKY/WX    TMP DP  RH WIND       PRES   REMARKS
EVANSVILLE     SUNNY     80  70  71 CALM      30.05S HAZE
HUNTINGBURG *+ SUNNY     77  70  78 CALM      30.05F
WASHINGTON +   SUNNY     79  69  71 CALM      30.04S

$$

INZ062-063-066-070>080-084-089>092-031500-
SOUTH CENTRAL AND SOUTHEAST INDIANA

CITY           SKY/WX    TMP DP  RH WIND       PRES   REMARKS
BLOOMINGTON    SUNNY     79  69  71 CALM      30.05F
NORTH VERNON + SUNNY     77  75  94 CALM      30.06S
SEYMOUR +      SUNNY     81  68  65 CALM      30.04F

$$



USA.gov is the U.S. government's official web portal to all federal, state and local government web resources and services.